Location: Ferintosh
(52.7647°N, 112.9692°W)
Time: 23:58:41
(UTC+00:00)

S-56A Canister/Altair - Pass Details

Date: 24 May 2024
Orbit: 637 x 2489 km, 38.9° (Epoch: 19 June)

Event Time Altitude Azimuth Distance (km) Brightness Sun altitude
Rises 11:49:24 0° 203° (SSW) 6,071 11.6 2.7°
Reaches altitude 10° 11:55:00 10° 189° (S) 4,893 11.3 3.4°
Maximum altitude 12:03:37 20° 149° (SSE) 3,682 11.1 4.5°
Drops below altitude 10° 12:10:46 10° 108° (ESE) 3,975 11.9 5.5°
Sets 12:14:38 0° 92° (E) 4,652 12.7 6.0°
